FDX1472 KMEM-KOKC

Flight info

Callsign FDX1472
Flight time 1h 13m
Altitude 30000
Route DUCKZ5 HELAR KOMMA KLUBB DWINE RIFFL3
Aircraft A306/H-SDE3FGHIRWY/LB1

Departure

Time 2026-05-06 19:05
Airport Memphis International Airport (KMEM)

Arrival

Time 2026-05-06 20:18
Airport OKC Will Rogers World Airport (KOKC)
Time Latitude Longitude Altitude Speed Heading
2026-05-06 18:31 35.06027 -89.97193 331 ft 0 kts
2026-05-06 18:50 35.06003 -89.97193 335 ft 4 kts
2026-05-06 18:50 35.05976 -89.97194 331 ft 4 kts
2026-05-06 18:50 35.05954 -89.97195 332 ft 4 kts 358°
2026-05-06 18:50 35.05935 -89.97187 331 ft 4 kts 287°
2026-05-06 18:51 35.05933 -89.97157 332 ft 4 kts 272°
2026-05-06 18:51 35.05932 -89.97148 331 ft 0 kts 272°
2026-05-06 18:54 35.05923 -89.97169 331 ft 5 kts 226°
2026-05-06 18:54 35.05872 -89.97187 333 ft 8 kts 184°
2026-05-06 18:55 35.05819 -89.97190 333 ft 7 kts 182°
2026-05-06 18:55 35.05775 -89.97192 334 ft 7 kts 182°
2026-05-06 18:55 35.05720 -89.97194 332 ft 9 kts 182°
2026-05-06 18:55 35.05655 -89.97216 333 ft 11 kts 216°
2026-05-06 18:56 35.05597 -89.97307 335 ft 14 kts 235°
2026-05-06 18:56 35.05543 -89.97404 333 ft 13 kts 235°
2026-05-06 18:56 35.05480 -89.97478 331 ft 14 kts 200°
2026-05-06 18:56 35.05376 -89.97482 329 ft 15 kts 179°
2026-05-06 18:57 35.05278 -89.97480 331 ft 14 kts 179°
2026-05-06 18:57 35.05189 -89.97478 329 ft 12 kts 179°
2026-05-06 18:57 35.05095 -89.97476 331 ft 16 kts 179°
2026-05-06 18:57 35.04977 -89.97474 330 ft 17 kts 179°
2026-05-06 18:58 35.04866 -89.97472 331 ft 15 kts 179°
2026-05-06 18:58 35.04752 -89.97469 331 ft 19 kts 179°
2026-05-06 18:58 35.04598 -89.97466 331 ft 23 kts 179°
2026-05-06 18:58 35.04446 -89.97463 332 ft 21 kts 179°
2026-05-06 18:59 35.04309 -89.97460 331 ft 19 kts 179°
2026-05-06 18:59 35.04184 -89.97458 330 ft 17 kts 179°
2026-05-06 18:59 35.04066 -89.97455 332 ft 16 kts 179°
2026-05-06 18:59 35.03930 -89.97452 332 ft 23 kts 179°
2026-05-06 19:00 35.03755 -89.97449 331 ft 25 kts 179°
2026-05-06 19:00 35.03583 -89.97444 331 ft 24 kts 179°
2026-05-06 19:00 35.03426 -89.97441 331 ft 22 kts 179°
2026-05-06 19:00 35.03278 -89.97439 331 ft 20 kts 179°
2026-05-06 19:01 35.03143 -89.97436 332 ft 18 kts 179°
2026-05-06 19:01 35.03007 -89.97433 332 ft 22 kts 179°
2026-05-06 19:01 35.02855 -89.97429 329 ft 21 kts 179°
2026-05-06 19:01 35.02717 -89.97427 332 ft 19 kts 179°
2026-05-06 19:02 35.02590 -89.97424 332 ft 18 kts 179°
2026-05-06 19:02 35.02480 -89.97422 332 ft 11 kts 179°
2026-05-06 19:02 35.02428 -89.97431 331 ft 5 kts 221°
2026-05-06 19:02 35.02427 -89.97432 332 ft 0 kts 225°
2026-05-06 19:03 35.02426 -89.97433 332 ft 1 kts 226°
2026-05-06 19:03 35.02416 -89.97483 329 ft 10 kts 268°
2026-05-06 19:03 35.02432 -89.97550 328 ft 6 kts 330°
2026-05-06 19:03 35.02457 -89.97555 326 ft 0 kts 359°
2026-05-06 19:04 35.02506 -89.97556 328 ft 25 kts 359°
2026-05-06 19:04 35.02912 -89.97563 330 ft 90 kts 359°
2026-05-06 19:04 35.03726 -89.97581 326 ft 143 kts 358°
2026-05-06 19:05 35.04845 -89.97606 630 ft 170 kts 358°
2026-05-06 19:05 35.06069 -89.97893 1147 ft 189 kts 345°
2026-05-06 19:05 35.07269 -89.98401 1133 ft 174 kts 335°
2026-05-06 19:05 35.08257 -89.99157 1112 ft 164 kts 328°
2026-05-06 19:06 35.09188 -89.99941 1112 ft 162 kts 329°
2026-05-06 19:06 35.10123 -90.00691 1123 ft 167 kts 330°
2026-05-06 19:06 35.11245 -90.01533 1218 ft 211 kts 331°
2026-05-06 19:06 35.12610 -90.02547 1463 ft 246 kts 327°
2026-05-06 19:07 35.13845 -90.04053 2318 ft 255 kts 304°
2026-05-06 19:07 35.14434 -90.06077 3381 ft 252 kts 278°
2026-05-06 19:07 35.14548 -90.08178 4520 ft 244 kts 272°
2026-05-06 19:07 35.14591 -90.10171 5651 ft 236 kts 271°
2026-05-06 19:08 35.14634 -90.12234 6502 ft 241 kts 271°
2026-05-06 19:08 35.14677 -90.14258 7385 ft 242 kts 271°
2026-05-06 19:08 35.14704 -90.16334 8237 ft 247 kts 270°
2026-05-06 19:08 35.14730 -90.18450 9110 ft 251 kts 270°
2026-05-06 19:09 35.14756 -90.20589 9979 ft 253 kts 270°
2026-05-06 19:09 35.14782 -90.22781 10531 ft 266 kts 269°
2026-05-06 19:09 35.14807 -90.25105 10888 ft 286 kts 269°
2026-05-06 19:09 35.14832 -90.27632 11251 ft 308 kts 268°
2026-05-06 19:10 35.14636 -90.30309 11596 ft 326 kts 257°
2026-05-06 19:10 35.13989 -90.33017 12079 ft 337 kts 251°
2026-05-06 19:10 35.13230 -90.35748 12785 ft 341 kts 250°
2026-05-06 19:10 35.12460 -90.38495 13571 ft 342 kts 249°
2026-05-06 19:11 35.11693 -90.41246 14332 ft 343 kts 249°
2026-05-06 19:11 35.10927 -90.44006 15045 ft 343 kts 249°
2026-05-06 19:11 35.10160 -90.46772 15748 ft 344 kts 250°
2026-05-06 19:11 35.09392 -90.49547 16465 ft 345 kts 250°
2026-05-06 19:12 35.08621 -90.52329 17145 ft 347 kts 250°
2026-05-06 19:12 35.07847 -90.55120 17811 ft 347 kts 251°
2026-05-06 19:12 35.07071 -90.57919 18443 ft 349 kts 251°
2026-05-06 19:12 35.06289 -90.60734 18915 ft 352 kts 251°
2026-05-06 19:13 35.05500 -90.63570 19357 ft 355 kts 251°
2026-05-06 19:13 35.04703 -90.66433 19791 ft 358 kts 251°
2026-05-06 19:13 35.03900 -90.69319 20221 ft 360 kts 251°
2026-05-06 19:13 35.03095 -90.72228 20647 ft 363 kts 252°
2026-05-06 19:14 35.02513 -90.75237 21059 ft 367 kts 260°
2026-05-06 19:14 35.02375 -90.78365 21537 ft 371 kts 266°
2026-05-06 19:14 35.02391 -90.81512 22002 ft 372 kts 267°
2026-05-06 19:14 35.02425 -90.84684 22410 ft 375 kts 267°
2026-05-06 19:15 35.02466 -90.87871 22820 ft 377 kts 267°
2026-05-06 19:15 35.02511 -90.91078 23223 ft 380 kts 267°
2026-05-06 19:15 35.02556 -90.94312 23597 ft 382 kts 267°
2026-05-06 19:15 35.02600 -90.97558 23922 ft 384 kts 267°
2026-05-06 19:16 35.02641 -91.00824 24218 ft 386 kts 267°
2026-05-06 19:16 35.02681 -91.04110 24523 ft 388 kts 267°
2026-05-06 19:16 35.02719 -91.07407 24829 ft 390 kts 267°
2026-05-06 19:16 35.02756 -91.10723 25123 ft 392 kts 267°
2026-05-06 19:17 35.02793 -91.14055 25409 ft 393 kts 267°
2026-05-06 19:17 35.02828 -91.17394 25751 ft 394 kts 267°
2026-05-06 19:17 35.02863 -91.20738 26010 ft 395 kts 267°
2026-05-06 19:17 35.02897 -91.24101 26257 ft 398 kts 267°
2026-05-06 19:18 35.02930 -91.27485 26498 ft 399 kts 267°
2026-05-06 19:18 35.02962 -91.30884 26723 ft 401 kts 267°
2026-05-06 19:18 35.02993 -91.34292 26948 ft 403 kts 267°
2026-05-06 19:18 35.03024 -91.37709 27252 ft 403 kts 267°
2026-05-06 19:19 35.03055 -91.41126 27615 ft 402 kts 267°
2026-05-06 19:19 35.03084 -91.44531 27959 ft 401 kts 267°
2026-05-06 19:19 35.03113 -91.47926 28309 ft 400 kts 267°
2026-05-06 19:19 35.03140 -91.51316 28656 ft 399 kts 266°
2026-05-06 19:20 35.03165 -91.54701 29043 ft 398 kts 266°
2026-05-06 19:20 35.03191 -91.58067 29467 ft 396 kts 266°
2026-05-06 19:20 35.03215 -91.61415 29825 ft 395 kts 266°
2026-05-06 19:20 35.03237 -91.64777 30057 ft 396 kts 266°
2026-05-06 19:21 35.03258 -91.68131 30074 ft 395 kts 266°
2026-05-06 19:21 35.03297 -91.74832 30070 ft 390 kts 266°
2026-05-06 19:21 35.03321 -91.78058 30110 ft 371 kts 266°
2026-05-06 19:22 35.03343 -91.81122 30300 ft 365 kts 266°
2026-05-06 19:22 35.03357 -91.84290 30465 ft 371 kts 266°
2026-05-06 19:22 35.03367 -91.87420 30615 ft 377 kts 266°
2026-05-06 19:22 35.03376 -91.90635 30754 ft 381 kts 266°
2026-05-06 19:23 35.03388 -91.93867 31195 ft 377 kts 265°
2026-05-06 19:23 35.03405 -91.97011 31974 ft 365 kts 265°
2026-05-06 19:23 35.03422 -92.00080 32571 ft 358 kts 265°
2026-05-06 19:23 35.03436 -92.03084 33060 ft 355 kts 265°
2026-05-06 19:24 35.03446 -92.06084 33485 ft 352 kts 265°
2026-05-06 19:24 35.03454 -92.09060 33890 ft 350 kts 265°
2026-05-06 19:24 35.03460 -92.12026 34055 ft 350 kts 264°
2026-05-06 19:25 35.03469 -92.17955 34067 ft 349 kts 264°
2026-05-06 19:25 35.03475 -92.23869 34066 ft 349 kts 264°
2026-05-06 19:26 35.03485 -92.29789 34063 ft 349 kts 264°
2026-05-06 19:26 35.03501 -92.35702 34094 ft 348 kts 264°
2026-05-06 19:27 35.03503 -92.41604 34097 ft 348 kts 264°
2026-05-06 19:27 35.03501 -92.47509 34100 ft 348 kts 264°
2026-05-06 19:28 35.03498 -92.53370 34102 ft 348 kts 264°
2026-05-06 19:28 35.03493 -92.59271 34100 ft 348 kts 264°
2026-05-06 19:29 35.03486 -92.65175 34099 ft 348 kts 264°
2026-05-06 19:29 35.03471 -92.71067 34096 ft 346 kts 263°
2026-05-06 19:30 35.03457 -92.76965 34091 ft 345 kts 263°
2026-05-06 19:30 35.03442 -92.82779 34069 ft 345 kts 263°
2026-05-06 19:31 35.03423 -92.88630 34070 ft 345 kts 263°
2026-05-06 19:31 35.03388 -92.97411 34067 ft 345 kts 263°
2026-05-06 19:32 35.03362 -93.03254 34070 ft 345 kts 263°
2026-05-06 19:32 35.03335 -93.09100 34069 ft 344 kts 263°
2026-05-06 19:33 35.03303 -93.14925 34063 ft 343 kts 263°
2026-05-06 19:33 35.03267 -93.20745 34068 ft 343 kts 263°
2026-05-06 19:34 35.03229 -93.26567 34064 ft 343 kts 263°
2026-05-06 19:34 35.03189 -93.32388 34064 ft 343 kts 263°
2026-05-06 19:35 35.03140 -93.38207 34065 ft 343 kts 263°
2026-05-06 19:35 35.03097 -93.44026 34067 ft 343 kts 263°
2026-05-06 19:36 35.03059 -93.48867 34069 ft 343 kts 263°
2026-05-06 19:36 35.03009 -93.54688 34072 ft 343 kts 262°
2026-05-06 19:37 35.02955 -93.60505 34067 ft 343 kts 262°
2026-05-06 19:37 35.02895 -93.66326 34065 ft 343 kts 262°
2026-05-06 19:38 35.02831 -93.72135 34073 ft 343 kts 262°
2026-05-06 19:38 35.02774 -93.77948 34073 ft 343 kts 262°
2026-05-06 19:39 35.02714 -93.83758 34070 ft 343 kts 262°
2026-05-06 19:39 35.02646 -93.89579 34072 ft 343 kts 262°
2026-05-06 19:40 35.02570 -93.95398 34073 ft 343 kts 262°
2026-05-06 19:40 35.02497 -94.01220 34073 ft 343 kts 262°
2026-05-06 19:41 35.02424 -94.07040 34069 ft 343 kts 262°
2026-05-06 19:41 35.02346 -94.12857 34071 ft 343 kts 262°
2026-05-06 19:42 35.02266 -94.18676 34072 ft 343 kts 262°
2026-05-06 19:42 35.02181 -94.24502 34078 ft 344 kts 262°
2026-05-06 19:43 35.02093 -94.30335 34071 ft 344 kts 262°
2026-05-06 19:43 35.02003 -94.36138 34073 ft 344 kts 262°
2026-05-06 19:44 35.01910 -94.41973 34073 ft 344 kts 262°
2026-05-06 19:44 35.01815 -94.47814 34081 ft 345 kts 262°
2026-05-06 19:45 35.01717 -94.53653 34072 ft 344 kts 262°
2026-05-06 19:45 35.01616 -94.59498 34077 ft 345 kts 262°
2026-05-06 19:46 35.01518 -94.65350 34072 ft 346 kts 263°
2026-05-06 19:46 35.01955 -94.71266 34075 ft 353 kts 269°
2026-05-06 19:47 35.02726 -94.77205 34075 ft 355 kts 270°
2026-05-06 19:47 35.03549 -94.83135 34080 ft 355 kts 270°
2026-05-06 19:48 35.04373 -94.89064 34075 ft 354 kts 270°
2026-05-06 19:48 35.05182 -94.94999 34078 ft 354 kts 270°
2026-05-06 19:49 35.05981 -95.00946 34082 ft 356 kts 269°
2026-05-06 19:49 35.06783 -95.06922 34072 ft 357 kts 270°
2026-05-06 19:50 35.07584 -95.12898 34078 ft 357 kts 269°
2026-05-06 19:50 35.08382 -95.18877 34071 ft 357 kts 269°
2026-05-06 19:51 35.09174 -95.24854 34073 ft 356 kts 269°
2026-05-06 19:51 35.09963 -95.30832 34074 ft 357 kts 269°
2026-05-06 19:52 35.10750 -95.36810 34075 ft 357 kts 269°
2026-05-06 19:52 35.11534 -95.42795 34072 ft 357 kts 269°
2026-05-06 19:53 35.12290 -95.48740 34075 ft 356 kts 268°
2026-05-06 19:53 35.13004 -95.54704 34080 ft 354 kts 268°
2026-05-06 19:54 35.13712 -95.60642 34076 ft 353 kts 268°
2026-05-06 19:54 35.14415 -95.66538 33635 ft 344 kts 268°
2026-05-06 19:55 35.14758 -95.69396 32916 ft 339 kts 269°
2026-05-06 19:55 35.15092 -95.72251 32061 ft 339 kts 269°
2026-05-06 19:55 35.15425 -95.75092 31349 ft 336 kts 269°
2026-05-06 19:55 35.15757 -95.77915 30622 ft 336 kts 269°
2026-05-06 19:56 35.16086 -95.80751 29783 ft 339 kts 270°
2026-05-06 19:56 35.16420 -95.83625 28938 ft 344 kts 270°
2026-05-06 19:56 35.16759 -95.86539 28161 ft 349 kts 270°
2026-05-06 19:56 35.17102 -95.89495 27366 ft 354 kts 270°
2026-05-06 19:57 35.17451 -95.92487 26818 ft 356 kts 271°
2026-05-06 19:57 35.17800 -95.95469 26263 ft 354 kts 271°
2026-05-06 19:57 35.18147 -95.98439 25681 ft 352 kts 271°
2026-05-06 19:57 35.18491 -96.01394 25110 ft 350 kts 271°
2026-05-06 19:58 35.18830 -96.04330 24542 ft 348 kts 271°
2026-05-06 19:58 35.19164 -96.07192 24354 ft 330 kts 271°
2026-05-06 19:58 35.19483 -96.09891 24286 ft 311 kts 270°
2026-05-06 19:58 35.19779 -96.12441 24171 ft 296 kts 270°
2026-05-06 19:59 35.20059 -96.14881 24040 ft 285 kts 270°
2026-05-06 19:59 35.20324 -96.17253 23925 ft 288 kts 269°
2026-05-06 19:59 35.20592 -96.19680 23793 ft 290 kts 270°
2026-05-06 19:59 35.20857 -96.22131 23446 ft 290 kts 269°
2026-05-06 20:00 35.21105 -96.24572 22940 ft 288 kts 269°
2026-05-06 20:00 35.21349 -96.27000 22497 ft 287 kts 269°
2026-05-06 20:00 35.21589 -96.29418 22047 ft 286 kts 269°
2026-05-06 20:00 35.21829 -96.31831 21604 ft 286 kts 269°
2026-05-06 20:01 35.22068 -96.34239 21159 ft 285 kts 270°
2026-05-06 20:01 35.22306 -96.36642 20710 ft 284 kts 270°
2026-05-06 20:01 35.22543 -96.39042 20259 ft 284 kts 270°
2026-05-06 20:01 35.22780 -96.41435 19822 ft 284 kts 270°
2026-05-06 20:02 35.23015 -96.43828 19364 ft 283 kts 270°
2026-05-06 20:02 35.23251 -96.46217 18909 ft 282 kts 270°
2026-05-06 20:02 35.23484 -96.48597 18474 ft 282 kts 271°
2026-05-06 20:02 35.23717 -96.50974 17985 ft 281 kts 271°
2026-05-06 20:03 35.23950 -96.53349 17485 ft 281 kts 270°
2026-05-06 20:03 35.24181 -96.55716 16992 ft 280 kts 270°
2026-05-06 20:03 35.24410 -96.58077 16528 ft 279 kts 270°
2026-05-06 20:03 35.24638 -96.60430 16091 ft 278 kts 270°
2026-05-06 20:04 35.24844 -96.62781 15653 ft 277 kts 269°
2026-05-06 20:04 35.24979 -96.65122 15215 ft 275 kts 268°
2026-05-06 20:04 35.25092 -96.67455 14785 ft 274 kts 267°
2026-05-06 20:04 35.25200 -96.69782 14332 ft 274 kts 267°
2026-05-06 20:05 35.25307 -96.72112 13888 ft 274 kts 267°
2026-05-06 20:05 35.25414 -96.74435 13468 ft 270 kts 267°
2026-05-06 20:05 35.25521 -96.76665 13388 ft 255 kts 267°
2026-05-06 20:05 35.25622 -96.78774 13307 ft 242 kts 267°
2026-05-06 20:06 35.25716 -96.80789 13247 ft 234 kts 266°
2026-05-06 20:06 35.25803 -96.82791 12930 ft 237 kts 267°
2026-05-06 20:06 35.25890 -96.84809 12514 ft 238 kts 267°
2026-05-06 20:06 35.25979 -96.86837 12139 ft 240 kts 268°
2026-05-06 20:07 35.26070 -96.88878 11750 ft 241 kts 268°
2026-05-06 20:07 35.26162 -96.90922 11367 ft 241 kts 269°
2026-05-06 20:07 35.26254 -96.92971 10965 ft 241 kts 269°
2026-05-06 20:07 35.26346 -96.95020 10592 ft 241 kts 270°
2026-05-06 20:08 35.26438 -96.97074 10207 ft 242 kts 270°
2026-05-06 20:08 35.26530 -96.99134 9776 ft 244 kts 270°
2026-05-06 20:08 35.26622 -97.01209 9341 ft 244 kts 271°
2026-05-06 20:08 35.26714 -97.03286 8922 ft 245 kts 271°
2026-05-06 20:09 35.26807 -97.05364 8516 ft 245 kts 271°
2026-05-06 20:09 35.26899 -97.07448 8092 ft 245 kts 272°
2026-05-06 20:09 35.26992 -97.09543 7655 ft 247 kts 272°
2026-05-06 20:09 35.27087 -97.11656 7200 ft 251 kts 273°
2026-05-06 20:10 35.27180 -97.13813 6750 ft 256 kts 274°
2026-05-06 20:10 35.27276 -97.16011 6275 ft 261 kts 274°
2026-05-06 20:10 35.27373 -97.18225 5767 ft 266 kts 274°
2026-05-06 20:10 35.27472 -97.20542 5280 ft 272 kts 276°
2026-05-06 20:11 35.27572 -97.22844 4770 ft 277 kts 276°
2026-05-06 20:11 35.27674 -97.25211 4254 ft 279 kts 276°
2026-05-06 20:11 35.27776 -97.27563 4014 ft 276 kts 277°
2026-05-06 20:11 35.27875 -97.29901 3969 ft 276 kts 277°
2026-05-06 20:12 35.27973 -97.32255 3969 ft 276 kts 276°
2026-05-06 20:12 35.28071 -97.34592 3970 ft 274 kts 276°
2026-05-06 20:12 35.28166 -97.36909 3962 ft 273 kts 277°
2026-05-06 20:12 35.28264 -97.39232 3967 ft 273 kts 276°
2026-05-06 20:13 35.28356 -97.41486 3953 ft 257 kts 276°
2026-05-06 20:13 35.28438 -97.43590 3951 ft 242 kts 276°
2026-05-06 20:13 35.28518 -97.45583 3957 ft 227 kts 277°
2026-05-06 20:13 35.28579 -97.47463 3942 ft 216 kts 276°
2026-05-06 20:14 35.28596 -97.49240 3902 ft 202 kts 275°
2026-05-06 20:14 35.28603 -97.50929 3603 ft 196 kts 275°
2026-05-06 20:14 35.28606 -97.52544 3485 ft 183 kts 274°
2026-05-06 20:14 35.28627 -97.54016 3488 ft 163 kts 280°
2026-05-06 20:15 35.28815 -97.55320 3316 ft 151 kts 294°
2026-05-06 20:15 35.29235 -97.56473 3054 ft 146 kts 308°
2026-05-06 20:15 35.29852 -97.57424 2996 ft 141 kts 323°
2026-05-06 20:15 35.30623 -97.58139 3004 ft 134 kts 340°
2026-05-06 20:16 35.31459 -97.58479 3002 ft 122 kts 351°
2026-05-06 20:16 35.32280 -97.58760 2920 ft 125 kts 351°
2026-05-06 20:16 35.33116 -97.58941 2619 ft 119 kts
2026-05-06 20:16 35.33951 -97.58953 2340 ft 123 kts
2026-05-06 20:17 35.34799 -97.58922 2008 ft 119 kts
2026-05-06 20:17 35.35625 -97.58911 1794 ft 118 kts
2026-05-06 20:17 35.36438 -97.58893 1629 ft 116 kts
2026-05-06 20:17 35.37256 -97.58898 1449 ft 118 kts
2026-05-06 20:18 35.38088 -97.58900 1305 ft 115 kts
2026-05-06 20:18 35.38777 -97.58894 1301 ft 78 kts 359°
2026-05-06 20:18 35.39141 -97.58902 1300 ft 26 kts 346°
2026-05-06 20:18 35.39216 -97.59012 1298 ft 14 kts 281°
2026-05-06 20:19 35.39271 -97.59058 1299 ft 10 kts 350°
2026-05-06 20:19 35.39352 -97.59063 1301 ft 13 kts 359°
2026-05-06 20:19 35.39449 -97.59064 1300 ft 15 kts
2026-05-06 20:19 35.39556 -97.59062 1299 ft 14 kts 360°
2026-05-06 20:20 35.39602 -97.59062 1299 ft 6 kts 360°
2026-05-06 20:20 35.39653 -97.59062 1300 ft 8 kts 360°
2026-05-06 20:20 35.39723 -97.59062 1301 ft 10 kts 360°
2026-05-06 20:20 35.39792 -97.59062 1301 ft 10 kts
2026-05-06 20:21 35.39865 -97.59062 1300 ft 11 kts
2026-05-06 20:21 35.39912 -97.59111 1300 ft 8 kts 294°
2026-05-06 20:21 35.39948 -97.59142 1300 ft 6 kts 343°
2026-05-06 20:21 35.39987 -97.59146 1300 ft 5 kts 359°
2026-05-06 20:22 35.39999 -97.59147 1300 ft 3 kts 358°
2026-05-06 20:22 35.40006 -97.59154 1300 ft 2 kts 311°
2026-05-06 20:22 35.40011 -97.59169 1300 ft 3 kts 294°
2026-05-06 20:22 35.40015 -97.59195 1301 ft 2 kts 276°
2026-05-06 20:23 35.40016 -97.59211 1301 ft 3 kts 272°
2026-05-06 20:23 35.40016 -97.59221 1301 ft 0 kts 271°